G2496 Weather Reports


time (UTC)temp
C
wind
direction
speed
KPH
gust
KPH
rain 1hr
cm
rain 24hr
cm
rain mn
cm
humidity
%
barometer
mb
20260505124122 12 9 0.0 3.2 0.00 0.00 0.00 88 1004.1
20260505123122 12 5 0.0 3.2 0.00 0.00 0.00 87 1003.9
20260505122122 12 30 0.0 3.2 0.00 0.00 0.00 87 1004.0
20260505121122 12 14 1.6 4.8 0.00 0.00 0.00 87 1003.9
20260505120122 12 325 1.6 4.8 0.00 0.00 0.00 86 1003.8
20260505115122 12 326 1.6 3.2 0.00 0.00 0.00 85 1003.8
20260505114122 12 32 0.0 1.6 0.00 0.00 0.00 85 1003.8
20260505113122 12 84 0.0 3.2 0.00 0.00 0.00 85 1003.9
20260505112122 12 67 1.6 4.8 0.00 0.00 0.00 85 1003.8
20260505111122 12 114 1.6 4.8 0.00 0.00 0.00 85 1003.8
20260505110122 12 347 0.0 3.2 0.00 0.00 0.00 85 1003.7
20260505102122 12 75 1.6 4.8 0.00 0.00 0.00 85 1003.4
20260505101122 12 130 1.6 4.8 0.00 0.00 0.00 85 1003.4
20260505100122 12 23 1.6 6.4 0.00 0.00 0.00 85 1003.4
20260505095122 12 24 0.0 4.8 0.00 0.00 0.00 86 1003.4
20260505094122 12 83 1.6 4.8 0.00 0.00 0.00 86 1003.4
20260505093143 12 50 1.6 4.8 0.00 0.00 0.00 85 1003.3
20260505092122 12 40 1.6 6.4 0.00 0.00 0.00 85 1003.2
20260505091122 12 18 4.8 6.4 0.00 0.00 0.00 84 1003.2
20260505090122 12 7 4.8 6.4 0.00 0.00 0.00 84 1003.0
20260505085122 12 21 4.8 6.4 0.00 0.00 0.00 83 1003.0
20260505084122 12 22 4.8 8.0 0.00 0.00 0.00 83 1003.0
20260505083122 12 13 4.8 8.0 0.00 0.00 0.00 83 1002.9
20260505082122 12 16 6.4 11.3 0.00 0.00 0.00 83 1002.8
20260505081143 12 11 6.4 14.5 0.00 0.00 0.00 83 1002.8
20260505080122 12 10 6.4 11.3 0.00 0.00 0.00 82 1002.8
20260505075122 12 14 6.4 11.3 0.00 0.00 0.00 82 1002.8
20260505074122 12 16 6.4 9.7 0.00 0.00 0.00 83 1002.5
20260505073122 12 7 8.0 12.9 0.00 0.00 0.00 82 1002.5
20260505072122 12 20 6.4 12.9 0.00 0.00 0.00 81 1002.4
20260505071143 13 13 4.8 11.3 0.00 0.00 0.00 80 1002.2
20260505070123 13 12 8.0 12.9 0.00 0.00 0.00 80 1002.2
20260505065122 13 18 6.4 14.5 0.00 0.00 0.00 79 1001.9
20260505064122 13 15 8.0 14.5 0.00 0.00 0.00 77 1001.7
20260505063122 14 9 4.8 9.7 0.00 0.00 0.00 76 1001.7
20260505062122 14 348 6.4 9.7 0.00 0.00 0.00 75 1001.5
20260505061143 15 11 4.8 9.7 0.00 0.00 0.00 74 1001.5
20260505060122 15 5 6.4 11.3 0.00 0.00 0.00 73 1001.3
20260505055122 15 25 6.4 12.9 0.00 0.00 0.00 72 1001.3
20260505054122 15 30 6.4 11.3 0.00 0.00 0.00 70 1001.1
20260505053123 15 34 6.4 8.0 0.00 0.00 0.00 70 1001.1
20260505052122 16 43 6.4 12.9 0.00 0.00 0.00 68 1001.1
20260505051143 16 38 6.4 11.3 0.00 0.00 0.00 66 1001.0
20260505050122 17 13 9.7 16.1 0.00 0.00 0.00 65 1000.8
20260505041122 18 30 9.7 17.7 0.00 0.00 0.00 60 1000.3
20260505040122 19 17 11.3 16.1 0.00 0.00 0.00 58 1000.1
20260505035122 20 9 8.0 11.3 0.00 0.00 0.00 58 999.9
20260505034122 20 12 8.0 16.1 0.00 0.00 0.00 57 999.8
20260505033123 21 13 6.4 12.9 0.00 0.00 0.00 59 999.7
20260505032122 21 345 1.6 6.4 0.00 0.00 0.00 58 999.2
20260505031122 22 282 3.2 9.7 0.00 0.00 0.00 57 999.2
20260505030122 21 300 3.2 6.4 0.00 0.00 0.00 58 999.1
20260505025122 22 323 1.6 6.4 0.00 0.00 0.00 55 999.0
20260505024122 23 254 4.8 8.0 0.00 0.00 0.00 52 998.9
20260505023122 22 297 3.2 14.5 0.00 0.00 0.00 55 998.9
20260505022122 23 241 1.6 4.8 0.00 0.00 0.00 52 998.8
20260505021122 24 296 4.8 9.7 0.00 0.00 0.00 50 998.8
20260505020122 23 257 3.2 6.4 0.00 0.00 0.00 51 998.9
20260505015122 24 217 4.8 9.7 0.00 0.00 0.00 50 998.9
20260505014122 23 203 4.8 11.3 0.00 0.00 0.00 51 998.8
20260505013122 26 243 4.8 11.3 0.00 0.00 0.00 45 998.9
20260505012122 25 231 3.2 8.0 0.00 0.00 0.00 47 999.1
20260505011143 26 301 6.4 12.9 0.00 0.00 0.00 43 999.1
20260505010122 25 252 4.8 12.9 0.00 0.00 0.00 46 999.1
20260505005122 26 306 3.2 14.5 0.00 0.00 0.00 44 999.1
20260505004122 24 177 3.2 8.0 0.00 0.00 0.00 47 999.1
20260505003122 27 273 4.8 9.7 0.00 0.00 0.00 40 999.4
20260505002122 25 315 4.8 11.3 0.00 0.00 0.00 44 999.2
20260505001122 25 305 4.8 11.3 0.00 0.00 0.00 44 999.3
20260505000143 25 322 6.4 11.3 0.00 0.00 0.00 44 999.5
20260504235122 25 292 3.2 8.0 0.00 0.00 0.00 44 999.4
20260504234122 25 275 4.8 9.7 0.00 0.00 0.00 43 999.6
20260504233143 23 242 4.8 9.7 0.00 0.00 0.00 46 999.6
20260504232122 24 307 3.2 14.5 0.00 0.00 0.00 46 999.6
20260504231122 23 188 6.4 11.3 0.00 0.00 0.00 47 999.7
20260504230143 23 220 4.8 12.9 0.00 0.00 0.00 48 999.9
20260504225144 23 306 3.2 9.7 0.00 0.00 0.00 47 1000.0
20260504224143 23 298 3.2 9.7 0.00 0.00 0.00 46 1000.0
20260504223123 23 338 6.4 14.5 0.00 0.00 0.00 46 1000.3
20260504222123 22 331 6.4 12.9 0.00 0.00 0.00 47 1000.4
20260504221122 23 248 6.4 11.3 0.00 0.00 0.00 48 1000.5
20260504220123 23 294 3.2 9.7 0.00 0.00 0.00 47 1000.6
20260504215122 22 247 3.2 8.0 0.00 0.00 0.00 48 1000.6
20260504214123 21 190 6.4 12.9 0.00 0.00 0.00 51 1000.7
20260504213122 22 243 4.8 11.3 0.00 0.00 0.00 48 1000.9
20260504212122 22 277 4.8 14.5 0.00 0.00 0.00 50 1001.0
20260504211122 21 320 6.4 14.5 0.00 0.00 0.00 52 1001.2
20260504210122 21 276 3.2 6.4 0.00 0.00 0.00 50 1001.3
20260504205122 21 192 4.8 12.9 0.00 0.00 0.00 52 1001.4
20260504204123 20 191 4.8 9.7 0.00 0.00 0.00 56 1001.5
20260504203122 20 223 4.8 8.0 0.00 0.00 0.00 54 1001.8
20260504202122 20 199 6.4 9.7 0.00 0.00 0.00 54 1001.8
20260504201122 20 271 4.8 11.3 0.00 0.00 0.00 53 1001.8
20260504200122 20 215 6.4 17.7 0.00 0.00 0.00 54 1002.0
20260504195143 18 223 4.8 12.9 0.00 0.00 0.00 58 1002.1
20260504194123 19 215 4.8 11.3 0.00 0.00 0.00 57 1002.1
20260504193123 18 253 6.4 19.3 0.00 0.00 0.00 59 1002.1
20260504192143 18 331 6.4 9.7 0.00 0.00 0.00 61 1002.2
20260504191122 18 172 1.6 6.4 0.00 0.00 0.00 61 1002.3
20260504190122 17 322 4.8 11.3 0.00 0.00 0.00 63 1002.4
20260504185122 17 310 3.2 6.4 0.00 0.00 0.00 64 1002.6
20260504184123 16 287 3.2 12.9 0.00 0.00 0.00 67 1002.7
20260504183122 16 202 6.4 11.3 0.00 0.00 0.00 68 1002.6
20260504182143 15 215 4.8 11.3 0.00 0.00 0.00 71 1002.6
20260504181122 15 189 6.4 12.9 0.00 0.00 0.00 71 1002.6
20260504180122 15 195 6.4 11.3 0.00 0.00 0.00 71 1002.6
20260504175122 15 182 3.2 12.9 0.00 0.00 0.00 72 1002.6
20260504174143 15 178 3.2 9.7 0.00 0.00 0.00 73 1002.8
20260504173123 15 187 6.4 12.9 0.00 0.00 0.00 72 1002.6
20260504172122 15 283 3.2 9.7 0.00 0.00 0.00 71 1002.6
20260504171143 15 195 6.4 12.9 0.00 0.00 0.00 72 1002.5
20260504170122 15 213 4.8 9.7 0.00 0.00 0.00 72 1002.5
20260504160122 14 205 6.4 11.3 0.00 0.00 0.00 74 1002.4
20260504151122 15 192 6.4 12.9 0.00 0.00 0.00 72 1002.1
20260504150122 14 183 6.4 11.3 0.00 0.00 0.00 75 1001.9
20260504141143 13 168 6.4 12.9 0.00 0.00 0.00 78 1001.4
20260504140122 13 179 3.2 4.8 0.00 0.00 0.00 79 1001.3
20260504130143 13 181 3.2 8.0 0.00 0.00 0.00 76 1000.2